Location: Doux
(49.5045°N, 4.4321°E)
Time: 06:49:41
(UTC+00:00)

Cosmos 1570 Rocket - Pass Details

Date: 23 May 2024
Orbit: 761 x 786 km, 74.1° (Epoch: 19 June)

Event Time Altitude Azimuth Distance (km) Brightness Sun altitude
Rises 02:51:59 0° 334° (NNW) 3,265 7.5 -7.8°
Reaches altitude 10° 02:54:22 10° 333° (NNW) 2,337 6.8 -7.6°
Maximum altitude 02:59:40 70° 250° (WSW) 830 4.0 -7.0°
Drops below altitude 10° 03:04:56 10° 168° (SSE) 2,335 6.2 -6.3°
Sets 03:07:19 0° 166° (SSE) 3,261 7.0 -6.0°
